When you browse on this site, cookies collect data to enhance your experience and personalize the content and advertising you see.
Visit our Privacy Policy to learn more. By continuing to use the site, you agree to this use of cookies and data.
  • In Czech Republic
  • List of Countries
  • For 7 days
  • Water Temperature
  • Satellite Maps
  • Weather Map
  • Weather Widgets
  • user-avatar
    Login

    Hourly Weather Beijing

    Today, 18 June, Tuesday

    Time Temperature Precipitation Wind Pressure Humidity
    00:00 +26°C° 0.1 mm 1 mps 750 mmHg 55%
    01:00 +26°C° 0.1 mm 1 mps 750 mmHg 57%
    02:00 +25°C° 0 mm 1 mps 750 mmHg 56%
    03:00 +25°C° 0 mm 1 mps 750 mmHg 57%
    04:00 +24°C° 0 mm 1 mps 750 mmHg 58%
    05:00 +24°C° 0 mm 1 mps 749 mmHg 60%
    06:00 +25°C° 0 mm 1 mps 749 mmHg 55%
    07:00 +26°C° 0 mm 1 mps 749 mmHg 51%
    08:00 +27°C° 0 mm 1 mps 749 mmHg 47%
    09:00 +29°C° 0 mm 1 mps 749 mmHg 42%
    10:00 +31°C° 0 mm 1 mps 749 mmHg 37%
    11:00 +33°C° 0 mm 1 mps 749 mmHg 32%
    12:00 +35°C° 0 mm 1 mps 748 mmHg 30%
    13:00 +36°C° 0 mm 1 mps 748 mmHg 27%
    14:00 +37°C° 0 mm 1 mps 747 mmHg 25%
    15:00 +38°C° 0.1 mm 2 mps 747 mmHg 25%
    16:00 +38°C° 0.1 mm 3 mps 747 mmHg 26%
    17:00 +39°C° 0.1 mm 3 mps 747 mmHg 26%
    18:00 +37°C° 0.1 mm 3 mps 747 mmHg 30%
    19:00 +35°C° 0.1 mm 2 mps 747 mmHg 35%
    20:00 +32°C° 0.1 mm 2 mps 748 mmHg 39%
    21:00 +31°C° 0.1 mm 3 mps 748 mmHg 43%
    22:00 +30°C° 0.1 mm 3 mps 748 mmHg 48%
    23:00 +29°C° 0.1 mm 4 mps 749 mmHg 52%

    Tomorrow, 19 June, Wednesday

    Time Temperature Precipitation Wind Pressure Humidity
    00:00 +28°C° 0.3 mm 3 mps 749 mmHg 55%
    01:00 +27°C° 0.3 mm 3 mps 749 mmHg 59%
    02:00 +26°C° 0.3 mm 2 mps 750 mmHg 62%
    03:00 +26°C° 0.5 mm 2 mps 750 mmHg 65%
    04:00 +25°C° 0.5 mm 2 mps 750 mmHg 67%
    05:00 +25°C° 0.5 mm 1 mps 750 mmHg 70%
    06:00 +26°C° 0.1 mm 1 mps 750 mmHg 65%
    07:00 +27°C° 0.1 mm 2 mps 750 mmHg 60%
    08:00 +28°C° 0.1 mm 2 mps 750 mmHg 56%
    09:00 +30°C° 0 mm 2 mps 750 mmHg 50%
    10:00 +32°C° 0 mm 2 mps 750 mmHg 44%
    11:00 +34°C° 0 mm 2 mps 749 mmHg 39%
    12:00 +35°C° 0 mm 1 mps 749 mmHg 36%
    13:00 +36°C° 0 mm 1 mps 749 mmHg 33%
    14:00 +37°C° 0 mm 1 mps 748 mmHg 30%
    15:00 +37°C° 0 mm 1 mps 748 mmHg 29%
    16:00 +39°C° 0 mm 1 mps 748 mmHg 28%
    17:00 +39°C° 0 mm 1 mps 747 mmHg 27%
    18:00 +37°C° 0 mm 2 mps 748 mmHg 33%
    19:00 +36°C° 0 mm 3 mps 748 mmHg 38%
    20:00 +34°C° 0 mm 3 mps 748 mmHg 43%
    21:00 +33°C° 0 mm 3 mps 749 mmHg 48%
    22:00 +30°C° 0 mm 3 mps 749 mmHg 52%
    23:00 +29°C° 0 mm 2 mps 749 mmHg 56%

    Day after tomorrow, 20 June, Thursday

    Time Temperature Precipitation Wind Pressure Humidity
    00:00 +28°C° 0.1 mm 2 mps 749 mmHg 58%
    01:00 +27°C° 0.1 mm 1 mps 749 mmHg 61%
    02:00 +27°C° 0.1 mm 1 mps 749 mmHg 63%
    03:00 +26°C° 0 mm 1 mps 749 mmHg 63%
    04:00 +26°C° 0 mm 1 mps 749 mmHg 63%
    05:00 +24°C° 0 mm 0 mps 749 mmHg 63%
    06:00 +25°C° 0 mm 0 mps 749 mmHg 58%
    07:00 +27°C° 0 mm 0 mps 750 mmHg 53%
    08:00 +28°C° 0 mm 0 mps 750 mmHg 49%
    09:00 +30°C° 0 mm 0 mps 749 mmHg 43%
    10:00 +33°C° 0 mm 0 mps 749 mmHg 37%
    11:00 +35°C° 0 mm 0 mps 749 mmHg 32%
    12:00 +39°C° 0 mm 1 mps 748 mmHg 28%
    13:00 +40°C° 0 mm 1 mps 748 mmHg 25%
    14:00 +41°C° 0 mm 1 mps 748 mmHg 22%
    15:00 +41°C° 0 mm 2 mps 747 mmHg 21%
    16:00 +41°C° 0 mm 2 mps 747 mmHg 20%
    17:00 +41°C° 0 mm 2 mps 747 mmHg 19%
    18:00 +40°C° 0 mm 2 mps 747 mmHg 22%
    19:00 +38°C° 0 mm 2 mps 748 mmHg 24%
    20:00 +37°C° 0 mm 3 mps 748 mmHg 26%
    21:00 +36°C° 0 mm 2 mps 749 mmHg 31%
    22:00 +34°C° 0 mm 2 mps 749 mmHg 35%
    23:00 +32°C° 0 mm 1 mps 749 mmHg 40%

    21 June, Friday

    Time Temperature Precipitation Wind Pressure Humidity
    00:00 +32°C° 0 mm 2 mps 750 mmHg 42%
    01:00 +31°C° 0 mm 2 mps 750 mmHg 44%
    02:00 +30°C° 0 mm 2 mps 750 mmHg 47%
    03:00 +29°C° 0.1 mm 2 mps 750 mmHg 49%
    04:00 +28°C° 0.1 mm 2 mps 751 mmHg 51%
    05:00 +28°C° 0.1 mm 2 mps 751 mmHg 53%
    06:00 +28°C° 0 mm 2 mps 751 mmHg 49%
    07:00 +29°C° 0 mm 2 mps 752 mmHg 44%
    08:00 +30°C° 0 mm 2 mps 752 mmHg 39%
    09:00 +32°C° 0 mm 2 mps 752 mmHg 36%
    10:00 +34°C° 0 mm 2 mps 752 mmHg 32%
    11:00 +36°C° 0 mm 2 mps 752 mmHg 29%
    12:00 +37°C° 0 mm 2 mps 751 mmHg 27%
    13:00 +38°C° 0 mm 2 mps 751 mmHg 25%
    14:00 +39°C° 0 mm 2 mps 750 mmHg 23%
    15:00 +39°C° 0 mm 3 mps 750 mmHg 23%
    16:00 +38°C° 0 mm 4 mps 750 mmHg 23%
    17:00 +39°C° 0 mm 5 mps 750 mmHg 23%
    18:00 +36°C° 0 mm 5 mps 750 mmHg 25%
    19:00 +34°C° 0 mm 4 mps 751 mmHg 27%
    20:00 +33°C° 0 mm 4 mps 751 mmHg 29%
    21:00 +30°C° 0 mm 4 mps 752 mmHg 31%
    22:00 +29°C° 0 mm 3 mps 752 mmHg 34%
    23:00 +28°C° 0 mm 3 mps 753 mmHg 37%

    22 June, Saturday

    Time Temperature Precipitation Wind Pressure Humidity
    00:00 +27°C° 0 mm 2 mps 753 mmHg 38%
    01:00 +27°C° 0 mm 1 mps 753 mmHg 39%
    02:00 +26°C° 0 mm 1 mps 754 mmHg 40%
    03:00 +26°C° 0 mm 1 mps 754 mmHg 40%
    04:00 +26°C° 0 mm 1 mps 753 mmHg 41%
    05:00 +25°C° 0 mm 1 mps 753 mmHg 41%
    06:00 +27°C° 0 mm 1 mps 753 mmHg 37%
    07:00 +27°C° 0 mm 0 mps 753 mmHg 34%
    08:00 +28°C° 0 mm 0 mps 753 mmHg 30%
    09:00 +32°C° 0 mm 1 mps 753 mmHg 27%
    10:00 +33°C° 0 mm 1 mps 752 mmHg 25%
    11:00 +36°C° 0 mm 2 mps 752 mmHg 23%
    12:00 +37°C° 0 mm 2 mps 751 mmHg 22%
    13:00 +38°C° 0 mm 2 mps 751 mmHg 21%
    14:00 +39°C° 0 mm 2 mps 750 mmHg 20%
    15:00 +39°C° 0 mm 2 mps 750 mmHg 20%
    16:00 +39°C° 0 mm 2 mps 750 mmHg 19%
    17:00 +39°C° 0 mm 2 mps 749 mmHg 19%
    18:00 +38°C° 0 mm 2 mps 750 mmHg 21%
    19:00 +37°C° 0 mm 2 mps 750 mmHg 23%
    20:00 +36°C° 0 mm 2 mps 750 mmHg 25%
    21:00 +34°C° 0 mm 2 mps 751 mmHg 27%
    22:00 +33°C° 0 mm 3 mps 751 mmHg 29%
    23:00 +31°C° 0 mm 3 mps 751 mmHg 32%

    23 June, Sunday

    Time Temperature Precipitation Wind Pressure Humidity
    00:00 +29°C° 0 mm 3 mps 752 mmHg 35%
    01:00 +28°C° 0 mm 2 mps 752 mmHg 37%
    02:00 +27°C° 0 mm 2 mps 752 mmHg 40%
    03:00 +27°C° 0 mm 2 mps 752 mmHg 41%
    04:00 +26°C° 0 mm 1 mps 752 mmHg 42%
    05:00 +26°C° 0 mm 1 mps 752 mmHg 43%
    06:00 +27°C° 0 mm 1 mps 752 mmHg 40%
    07:00 +29°C° 0 mm 1 mps 752 mmHg 36%
    08:00 +30°C° 0 mm 1 mps 752 mmHg 32%
    09:00 +32°C° 0 mm 1 mps 751 mmHg 29%
    10:00 +34°C° 0 mm 1 mps 751 mmHg 25%
    11:00 +36°C° 0 mm 1 mps 750 mmHg 22%
    12:00 +39°C° 0 mm 2 mps 750 mmHg 21%
    13:00 +40°C° 0 mm 2 mps 749 mmHg 20%
    14:00 +41°C° 0 mm 2 mps 749 mmHg 19%
    15:00 +41°C° 0 mm 2 mps 748 mmHg 17%
    16:00 +41°C° 0 mm 2 mps 748 mmHg 16%
    17:00 +42°C° 0 mm 2 mps 748 mmHg 15%
    18:00 +40°C° 0 mm 3 mps 748 mmHg 17%
    19:00 +39°C° 0 mm 3 mps 748 mmHg 19%
    20:00 +38°C° 0 mm 4 mps 749 mmHg 21%
    21:00 +36°C° 0 mm 3 mps 749 mmHg 24%
    22:00 +35°C° 0 mm 3 mps 750 mmHg 26%
    23:00 +32°C° 0 mm 2 mps 750 mmHg 29%
    Show more